Tracking 20748 objects as of 4-Jun-2020
HD Live streaming from Space Station
objects crossing your sky now
Track the most recent launched group of Starlink satellites

INTELSAT 4-F1

Track INTELSAT 4-F1 now!
INTELSAT 4-F1 is classified as:


NORAD ID: 7815
Int'l Code: 1975-042A
Perigee: 36,043.7 km
Apogee: 36,114.9 km
Inclination: 12.7 °
Period: 1,450.7 minutes
Semi major axis: 42450 km
RCS: 12.6 m2 (large)
Launch date: May 22, 1975
Source: International Telecommunications Satellite Organization (ITSO)
Launch site: AIR FORCE EASTERN TEST RANGE (AFETR)
aabbcc
Your satellite tracking list
Your tracking list is empty




NASA's NSSDC Master Catalog

Two Line Element Set (TLE):
1  7815U 75042A   20155.84854760 -.00000301  00000-0  00000+0 0  9998
2  7815  12.6843 325.3937 0008380 198.5597 161.3614  0.99261799100142
Source of the keplerian elements: AFSPC